SAMSAT-IONOSPHERE (RS7*)

Last updated on Fri Dec 19 2025 00:03:12 GMT+0000 (Coordinated Universal Time)

1 61784U 24199BB 25352.64930876 .00023974 00000+0 53901-3 0 9996 2 61784 97.3222 220.9303 0010009 218.0455 142.0087 15.43277648109590
UTC large
Height (km)
Speed (km/s)
/
Latitude / Longitude
Inclination (degrees)
Orbital Period (minutes)
Azimuth
Elevation
Range (km)
Doppler Factor

Next 0 passes for location: London (51.5072 / 0.1276)

Sorry there are no passes over London.